sat.trackr.live / text

‹ back to catalog

YAOGAN-35 04A

NORAD 53522 · 2022-100A

PAYLOAD ACTIVE UNKNOWN

§ Identity

Operator
Country
PRC
Launch date
2022-08-19
Launch site
XICLF
Launch vehicle
Mass (kg)
RCS (m²)

External: N2YO · Heavens-Above · Gunter

§ Orbital elements

Epoch: 2026-05-24T10:58:38.527968Z

Period
94.55 min
Inclination
35.0088°
Eccentricity
0.0006122
Mean motion
15.23066049 rev/d
Perigee alt
492.4 km
Apogee alt
500.8 km
Semi-major
6,874.7 km
B*
1.1100e-5
RAAN
201.0168°
Arg perigee
35.4449°
Mean anomaly
324.6672°
Rev number
20,964

§ Raw data

YAOGAN-35 04A1 53522U 22100A   26144.45739037  .00000230  00000+0  11100-4 0  99982 53522  35.0088 201.0168 0006122  35.4449 324.6672 15.23066049209648

JSON: /api/v1/satellites/53522 · /tle

For live sub-satellite position, see the globe view (requires WebGL).

§ Visibility from observer

Set your observer location to see the next 7 days of passes ≥ 10°. The values pass through the URL so the page stays shareable.

No JS? Fill the form by hand. The geolocation button needs JavaScript.